This demonstration page uses our WeatherBlox Daily Observations layout. Learn more.

Left ArrowRight Arrow

34.74481, -87.66753

Hourly Observations for July 27, 2016

Temp ( °F °C ) Dew Point ( °F °C ) Humidity (%) Winds ( mph kmh ) Pressure ( in mb ) Visibility ( mi km ) Precip ( " mm )
12:53 am 00:53 Clear 78 25.6 71 21.7 79 79 Calm 29.97 1015 10 16 0.00 0.00
1:53 am 01:53 Clear 76 24.4 71 21.7 85 85 Calm 29.96 1015 10 16 0.00 0.00
2:53 am 02:53 Clear 76 24.4 72 22.2 88 88 E 3 6 29.96 1015 10 16 0.00 0.00
3:53 am 03:53 Clear 76 24.4 71 21.7 85 85 SE 5 7 29.97 1015 10 16 0.00 0.00
4:34 am 04:34 Mostly Cloudy 76 24.4 71 21.7 85 85 SSE 5 7 29.97 1015 10 16 0.00 0.00
4:53 am 04:53 Cloudy 76 24.4 72 22.2 88 88 SE 3 6 29.98 1015 10 16 0.00 0.00
5:53 am 05:53 Partly Cloudy 76 24.4 72 22.2 88 88 Calm 29.99 1016 10 16 0.00 0.00
6:09 am 06:09 Mostly Cloudy 76 24.4 72 22.2 88 88 Calm 30.00 1016 10 16 0.00 0.00
6:53 am 06:53 Cloudy 77 25 72 22.2 85 85 Calm 30.02 1017 10 16 0.00 0.00
7:24 am 07:24 Cloudy 78 25.6 73 22.8 85 85 ESE 3 6 30.00 1016 10 16 0.00 0.00
7:53 am 07:53 Cloudy 79 26.1 73 22.8 82 82 SE 5 7 30.02 1017 10 16 0.00 0.00
8:53 am 08:53 Cloudy 81 27.2 73 22.8 77 77 SE 7 11 30.01 1016 10 16 0.00 0.00
9:53 am 09:53 Partly Cloudy 83 28.3 73 22.8 72 72 ESE 7 11 30.00 1016 10 16 0.00 0.00
10:14 am 10:14 Mostly Cloudy 83 28.3 72 22.2 70 70 ESE 7 11 30.00 1016 10 16 0.00 0.00
10:53 am 10:53 Cloudy 84 28.9 72 22.2 67 67 SSE 7 11 30.01 1016 10 16 0.00 0.00
11:53 am 11:53 Mostly Cloudy 87 30.6 73 22.8 63 63 VRB 7 11 30.01 1016 10 16 0.00 0.00
12:53 pm 12:53 Mostly Cloudy 87 30.6 73 22.8 63 63 SSE 12 19 30.00 1016 10 16 0.00 0.00
1:53 pm 13:53 Mostly Sunny 90 32.2 73 22.8 58 58 SSE 12 19 29.97 1015 10 16 0.00 0.00
2:53 pm 14:53 Mostly Cloudy 89 31.7 71 21.7 55 55 S 10 17 29.94 1014 10 16 0.00 0.00
3:53 pm 15:53 Mostly Cloudy 90 32.2 71 21.7 54 54 S 10 17 29.92 1013 10 16 0.00 0.00
4:53 pm 16:53 Partly Cloudy 89 31.7 69 20.6 52 52 S 13 20 29.92 1013 10 16 0.00 0.00
5:53 pm 17:53 Sunny 89 31.7 72 22.2 57 57 SSE 13 20 29.91 1013 10 16 0.00 0.00
6:53 pm 18:53 Mostly Cloudy 85 29.4 71 21.7 63 63 S 12 19 29.91 1013 10 16 0.00 0.00
7:53 pm 19:53 Mostly Cloudy 83 28.3 72 22.2 70 70 SSW 9 15 29.93 1014 10 16 0.00 0.00
8:53 pm 20:53 Mostly Cloudy 80 26.7 72 22.2 76 76 SSW 7 11 29.93 1014 10 16 0.00 0.00
9:53 pm 21:53 Clear 78 25.6 72 22.2 82 82 S 3 6 29.96 1015 10 16 0.00 0.00
10:53 pm 22:53 Mostly Cloudy 78 25.6 73 22.8 85 85 S 5 7 29.97 1015 10 16 0.00 0.00
11:44 pm 23:44 Partly Cloudy 79 26.1 73 22.8 82 82 SSW 6 9 29.94 1014 10 16 0.00 0.00
11:53 pm 23:53 Mostly Cloudy 77 25 73 22.8 88 88 S 3 6 29.96 1015 10 16 0.00 0.00

Powered by AerisWeather